UAE2901 OMDB-EKCH

Flight info

Callsign UAE2901
Flight time N/A
Altitude 38000
Route DAVMO4F DAVMO M318 RADEB M317 ROTAL P574 SYZ P550 RIGOX/N0492F400 P550 DASIS UL746 ODERO DCT LUGEB DCT KARIL DCT KEKED DCT KELEL DCT BABEN L617 KOLOB/N0497F280 L617 ROE M743 TIDVU TIDVU3A
Aircraft A359/H-SDE2E3GHIJ3J4J5LM1ORWXY/LB1D1

Departure

Time N/A
Airport Dubai International Airport (OMDB)

Arrival

Time 2026-04-30 18:59
Airport Copenhagen Kastrup Airport (EKCH)
Time Latitude Longitude Altitude Speed Heading
2026-04-30 18:21 54.93175 14.86217 23932 ft 420 kts 340°
2026-04-30 18:21 54.95849 14.84131 23208 ft 416 kts 340°
2026-04-30 18:21 54.98451 14.82110 22570 ft 410 kts 340°
2026-04-30 18:22 55.01050 14.80101 21936 ft 404 kts 340°
2026-04-30 18:22 55.05861 14.75174 20708 ft 406 kts 323°
2026-04-30 18:22 55.07738 14.71434 20034 ft 415 kts 310°
2026-04-30 18:23 55.09284 14.67163 19325 ft 416 kts 306°
2026-04-30 18:23 55.10668 14.62694 18630 ft 416 kts 303°
2026-04-30 18:23 55.11949 14.58211 17886 ft 414 kts 302°
2026-04-30 18:23 55.13204 14.53700 17174 ft 410 kts 301°
2026-04-30 18:24 55.15691 14.44830 15796 ft 403 kts 301°
2026-04-30 18:24 55.16948 14.40433 15071 ft 400 kts 301°
2026-04-30 18:24 55.18199 14.36098 14395 ft 397 kts 302°
2026-04-30 18:25 55.19436 14.31828 13655 ft 395 kts 301°
2026-04-30 18:25 55.21894 14.23342 12257 ft 387 kts 301°
2026-04-30 18:25 55.23104 14.19154 11603 ft 382 kts 301°
2026-04-30 18:26 55.25370 14.11246 11326 ft 345 kts 301°
2026-04-30 18:26 55.26418 14.07568 11228 ft 328 kts 301°
2026-04-30 18:26 55.27423 14.04068 11119 ft 312 kts 301°
2026-04-30 18:27 55.29277 13.97590 10897 ft 285 kts 302°
2026-04-30 18:27 55.30147 13.94543 10749 ft 273 kts 302°
2026-04-30 18:28 55.31880 13.88508 10378 ft 288 kts 301°
2026-04-30 18:28 55.32791 13.85318 10379 ft 292 kts 301°
2026-04-30 18:28 55.34595 13.78958 10394 ft 291 kts 301°
2026-04-30 18:29 55.35495 13.75775 10218 ft 290 kts 301°
2026-04-30 18:29 55.38189 13.66228 8176 ft 287 kts 300°
2026-04-30 18:30 55.39651 13.61032 7007 ft 281 kts 300°
2026-04-30 18:30 55.41483 13.53800 6201 ft 279 kts 291°
2026-04-30 18:31 55.42057 13.50544 5932 ft 277 kts 290°
2026-04-30 18:31 55.43168 13.44078 5359 ft 274 kts 289°
2026-04-30 18:32 55.44262 13.37720 4956 ft 271 kts 289°
2026-04-30 18:32 55.44795 13.34612 4973 ft 254 kts 289°
2026-04-30 18:32 55.45661 13.28855 4970 ft 241 kts 276°
2026-04-30 18:33 55.45605 13.25931 4969 ft 243 kts 266°
2026-04-30 18:33 55.45288 13.20980 4970 ft 244 kts 265°
2026-04-30 18:33 55.45019 13.17043 4970 ft 244 kts 265°
2026-04-30 18:34 55.44882 13.15072 4974 ft 244 kts 265°
2026-04-30 18:34 55.44472 13.09112 4982 ft 244 kts 265°
2026-04-30 18:34 55.44268 13.06181 4971 ft 244 kts 265°
2026-04-30 18:35 55.44063 13.03199 4985 ft 244 kts 265°
2026-04-30 18:35 55.43859 13.00222 4976 ft 244 kts 265°
2026-04-30 18:35 55.43658 12.97291 4990 ft 243 kts 265°
2026-04-30 18:36 55.43250 12.91351 4989 ft 243 kts 265°
2026-04-30 18:36 55.43048 12.88390 4991 ft 243 kts 265°
2026-04-30 18:36 55.42646 12.82494 4985 ft 243 kts 265°
2026-04-30 18:37 55.42446 12.79547 4922 ft 240 kts 265°
2026-04-30 18:37 55.42248 12.76638 4605 ft 238 kts 265°
2026-04-30 18:37 55.42049 12.73767 4262 ft 238 kts 265°
2026-04-30 18:37 55.41845 12.70882 3957 ft 236 kts 265°
2026-04-30 18:38 55.41639 12.68020 3642 ft 234 kts 265°
2026-04-30 18:38 55.41430 12.65205 3358 ft 232 kts 265°
2026-04-30 18:38 55.41215 12.62395 3073 ft 229 kts 265°
2026-04-30 18:38 55.40994 12.59622 2987 ft 229 kts 265°
2026-04-30 18:39 55.40775 12.56867 2984 ft 229 kts 265°
2026-04-30 18:39 55.40551 12.54089 2990 ft 228 kts 265°
2026-04-30 18:39 55.40328 12.51344 2987 ft 229 kts 265°
2026-04-30 18:39 55.40145 12.48556 2986 ft 227 kts 272°
2026-04-30 18:40 55.40555 12.45957 2984 ft 219 kts 305°
2026-04-30 18:40 55.41700 12.44193 2986 ft 233 kts 336°
2026-04-30 18:40 55.43311 12.43450 2979 ft 245 kts 351°
2026-04-30 18:40 55.45024 12.43109 2987 ft 247 kts 354°
2026-04-30 18:41 55.46695 12.42575 2988 ft 247 kts 343°
2026-04-30 18:41 55.48280 12.41503 2989 ft 234 kts 336°
2026-04-30 18:41 55.49570 12.39957 2996 ft 217 kts 318°
2026-04-30 18:41 55.50443 12.37926 3004 ft 202 kts 303°
2026-04-30 18:42 55.51289 12.36052 2859 ft 189 kts 326°
2026-04-30 18:42 55.53570 12.36339 2817 ft 183 kts 44°
2026-04-30 18:42 55.54103 12.38404 2974 ft 193 kts 81°
2026-04-30 18:45 55.60994 12.47469 2986 ft 146 kts 315°
2026-04-30 18:45 55.61419 12.45831 3003 ft 150 kts 287°
2026-04-30 18:45 55.61584 12.43996 2997 ft 152 kts 281°
2026-04-30 18:46 55.61700 12.42130 2996 ft 152 kts 280°
2026-04-30 18:46 55.61809 12.40286 2992 ft 152 kts 281°
2026-04-30 18:46 55.61917 12.38420 2994 ft 152 kts 280°
2026-04-30 18:46 55.62024 12.36572 2986 ft 152 kts 280°
2026-04-30 18:47 55.62139 12.34715 3001 ft 152 kts 280°
2026-04-30 18:47 55.62072 12.32840 2982 ft 158 kts 251°
2026-04-30 18:47 55.61405 12.31304 2997 ft 160 kts 226°
2026-04-30 18:47 55.60540 12.30042 2994 ft 161 kts 221°
2026-04-30 18:48 55.59640 12.28838 2992 ft 162 kts 220°
2026-04-30 18:48 55.58735 12.27647 2992 ft 162 kts 220°
2026-04-30 18:48 55.57834 12.26458 2994 ft 162 kts 220°
2026-04-30 18:48 55.56941 12.25281 2997 ft 162 kts 220°
2026-04-30 18:49 55.56036 12.24093 2994 ft 162 kts 220°
2026-04-30 18:49 55.55131 12.22897 2993 ft 162 kts 220°
2026-04-30 18:49 55.54228 12.21707 2996 ft 162 kts 220°
2026-04-30 18:49 55.53328 12.20524 3004 ft 162 kts 220°
2026-04-30 18:50 55.52277 12.19766 3002 ft 167 kts 186°
2026-04-30 18:50 55.51134 12.19857 2998 ft 166 kts 173°
2026-04-30 18:50 55.49992 12.20179 2999 ft 166 kts 171°
2026-04-30 18:50 55.48848 12.20547 2995 ft 166 kts 170°
2026-04-30 18:51 55.47709 12.20925 2990 ft 166 kts 170°
2026-04-30 18:51 55.46583 12.21294 2994 ft 166 kts 170°
2026-04-30 18:51 55.45439 12.21664 2995 ft 166 kts 170°
2026-04-30 18:51 55.44304 12.22029 2995 ft 166 kts 170°
2026-04-30 18:52 55.43180 12.22413 2991 ft 166 kts 167°
2026-04-30 18:52 55.42235 12.23531 2996 ft 165 kts 122°
2026-04-30 18:52 55.41978 12.25392 3002 ft 156 kts 80°
2026-04-30 18:52 55.42228 12.27237 3000 ft 154 kts 67°
2026-04-30 18:53 55.42643 12.28967 3000 ft 152 kts 54°
2026-04-30 18:53 55.43237 12.30464 2995 ft 149 kts 49°
2026-04-30 18:53 55.43872 12.31915 2994 ft 149 kts 47°
2026-04-30 18:53 55.44515 12.33339 2992 ft 148 kts 47°
2026-04-30 18:54 55.45166 12.34757 2988 ft 148 kts 47°
2026-04-30 18:54 55.45812 12.36150 2989 ft 148 kts 46°
2026-04-30 18:54 55.46467 12.37558 2992 ft 148 kts 46°
2026-04-30 18:54 55.47117 12.38949 2992 ft 148 kts 46°
2026-04-30 18:55 55.47775 12.40357 2995 ft 148 kts 46°
2026-04-30 18:55 55.49080 12.43144 2996 ft 148 kts 46°
2026-04-30 18:55 55.49736 12.44547 2995 ft 148 kts 47°
2026-04-30 18:56 55.51049 12.47395 2685 ft 148 kts 49°
2026-04-30 18:56 55.51747 12.48686 2388 ft 146 kts 37°
2026-04-30 18:56 55.52509 12.49879 2110 ft 145 kts 36°
2026-04-30 18:57 55.53993 12.52299 1995 ft 146 kts 38°
2026-04-30 18:57 55.54755 12.53442 1993 ft 138 kts 34°
2026-04-30 18:57 55.55447 12.54505 1776 ft 133 kts 35°
2026-04-30 18:58 55.56975 12.56962 749 ft 154 kts 37°
2026-04-30 18:58 55.57806 12.58151 406 ft 152 kts 40°
2026-04-30 18:58 55.58573 12.59372 152 ft 144 kts 37°
2026-04-30 18:59 55.59798 12.61246 27 ft 49 kts 41°
2026-04-30 19:00 55.60197 12.61860 32 ft 60 kts 39°
2026-04-30 19:00 55.60466 12.62238 27 ft 37 kts 30°
2026-04-30 19:00 55.60815 12.62445 29 ft 12 kts 34°
2026-04-30 19:01 55.60983 12.62689 29 ft 19 kts 41°
2026-04-30 19:01 55.61088 12.62849 31 ft 21 kts 40°
2026-04-30 19:02 55.61305 12.63198 29 ft 22 kts 43°
2026-04-30 19:02 55.61373 12.63307 27 ft 8 kts 41°
2026-04-30 19:03 55.61495 12.63495 28 ft 16 kts 40°
2026-04-30 19:03 55.61699 12.63799 30 ft 21 kts 40°
2026-04-30 19:04 55.61942 12.64132 27 ft 24 kts 23°
2026-04-30 19:04 55.62133 12.64289 27 ft 0 kts 25°
2026-04-30 19:05 55.62136 12.64290 27 ft 2 kts 25°
2026-04-30 19:05 55.62228 12.64383 28 ft 9 kts 39°
2026-04-30 19:06 55.62270 12.64458 30 ft 0 kts 48°
2026-04-30 19:06 55.62272 12.64461 30 ft 1 kts 48°